Location: Newark
(37.4167°N, 6.2889°W)
Time: 02:00:53
(UTC+00:00)

Hubble Space Telescope - Visible Passes

Search period start: 25 March 2019 00:00
Search period end: 04 April 2019 00:00
Orbit: 537 x 540 km, 28.5° (Epoch: 24 March)

Date Brightness Start Highest point End Pass type
(mag) Time Alt. Az. Time Alt. Az. Time Alt. Az.
25 Mar 2.5 20:04:55 10° SSW 20:07:46 18° SSE 20:07:46 18° SSE visible
26 Mar 2.4 19:54:09 10° SW 19:57:11 20° S 19:58:03 18° SSE visible
27 Mar 2.4 19:43:26 10° SW 19:46:36 21° S 19:48:18 17° SE visible
28 Mar 2.3 19:32:46 10° SW 19:36:02 22° S 19:38:30 14° SE visible
28 Mar 3.6 21:13:33 10° WSW 21:13:51 11° SW 21:13:51 11° SW visible
29 Mar 2.3 19:22:09 10° SW 19:25:28 23° S 19:28:40 10° SE visible
29 Mar 3.3 21:03:08 10° WSW 21:04:01 14° SW 21:04:01 14° SW visible
30 Mar 2.4 19:11:34 10° SW 19:14:54 23° S 19:18:13 10° SE visible
30 Mar 3.1 20:52:46 10° SW 20:54:10 15° SW 20:54:10 15° SW visible
31 Mar 3.0 20:42:29 10° SW 20:44:18 15° SSW 20:44:18 15° SSW visible
01 Apr 3.1 20:32:21 10° SW 20:34:20 13° SSW 20:34:28 13° SSW visible
02 Apr 3.2 20:22:32 10° SW 20:23:43 11° SSW 20:24:38 10° S visible
